Weather History for Minden, LA

Change the Weather History Date:

Thursday, November 22, 2012

  Actual Average (KBAD) Record (KBAD)
Temperature  
Mean Temperature 58 °F -  
Max Temperature 75 °F 62 °F 80 °F (2003)
Min Temperature 42 °F 43 °F 28 °F (2000)
Degree Days  
Heating Degree Days 6    
Growing Degree Days 8 (Base 50)    
Moisture  
Dew Point 46 °F    
Average Humidity 68    
Maximum Humidity 92    
Minimum Humidity 35    
Precipitation  
Precipitation 0.00 in - - ()
Sea Level Pressure  
Sea Level Pressure 30.17 in    
Wind  
Wind Speed 2 mph ()    
Max Wind Speed 9 mph    
Max Gust Speed -    
Visibility 10.0 miles    
Events      
Averages and records for this station are not official NWS values.
T = Trace of Precipitation, MM = Missing Value Source: Averaged Metar Reports

Daily Weather History Graph

Daily Weather History Graph

Search for Another Location

Airport:

Trip Planner

Search our weather history database for the weather conditions in past years. The results will help you decide how hot, cold, wet, or windy it might be!

Date:

Astronomy

Nov. 22, 2012 Rise Set
Actual Time 6:49 AM CST 5:08 PM CST
Civil Twilight 6:23 AM CST 5:35 PM CST
Nautical Twilight 5:53 AM CST 6:05 PM CST
Astronomical Twilight 5:23 AM CST 6:34 PM CST
Moon 1:40 PM CST (11/22) 1:26 AM CST (11/22)
Length of Visible Light 11h 11m
Length of Day
10h 18m
Waxing Gibbous, 71% of the Moon is Illuminated
Nov 22
Waxing Gibbous
Nov 28
Full
Dec 6
Last Quarter
Dec 13
New
Dec 19
First Quarter

Hourly Weather History & Observations

Time (CST) Temp. Windchill Dew Point Humidity Pressure Visibility Wind Dir Wind Speed Gust Speed Precip Events Conditions
12:15 AM 45.1 °F - 41.9 °F 88% 30.20 in 10.0 mi Calm Calm - N/A   Clear
12:35 AM 45.0 °F - 42.3 °F 90% 30.20 in 10.0 mi Calm Calm - N/A   Clear
12:55 AM 44.6 °F - 42.1 °F 91% 30.20 in 10.0 mi Calm Calm - N/A   Clear
1:15 AM 45.0 °F - 42.4 °F 91% 30.19 in 10.0 mi Calm Calm - N/A   Clear
1:35 AM 44.6 °F - 42.4 °F 92% 30.19 in 10.0 mi Calm Calm - N/A   Clear
1:55 AM 43.7 °F - 41.2 °F 91% 30.19 in 10.0 mi Calm Calm - N/A   Clear
2:15 AM 42.8 °F - 40.3 °F 91% 30.19 in 10.0 mi Calm Calm - N/A   Clear
2:35 AM 43.0 °F - 40.5 °F 91% 30.18 in 10.0 mi Calm Calm - N/A   Clear
2:55 AM 42.3 °F - 39.9 °F 91% 30.18 in 10.0 mi Calm Calm - N/A   Clear
3:15 AM 43.3 °F 41.7 °F 40.8 °F 91% 30.18 in 10.0 mi East 3.5 mph - N/A   Clear
3:35 AM 43.5 °F - 41.0 °F 91% 30.17 in 10.0 mi Calm Calm - N/A   Clear
3:55 AM 46.0 °F - 42.6 °F 88% 30.17 in 10.0 mi Calm Calm - N/A   Clear
4:15 AM 46.8 °F - 43.0 °F 87% 30.17 in 10.0 mi Calm Calm - N/A   Clear
4:35 AM 46.0 °F - 42.1 °F 86% 30.17 in 10.0 mi Calm Calm - N/A   Clear
4:55 AM 46.8 °F - 43.0 °F 87% 30.17 in 10.0 mi Calm Calm - N/A   Clear
5:15 AM 47.1 °F - 43.7 °F 88% 30.17 in 10.0 mi Calm Calm - N/A   Clear
5:35 AM 47.3 °F - 43.7 °F 87% 30.17 in 10.0 mi Calm Calm - N/A   Clear
5:55 AM 45.5 °F - 42.4 °F 89% 30.17 in 10.0 mi Calm Calm - N/A   Clear
6:15 AM 46.2 °F - 43.2 °F 89% 30.17 in 10.0 mi Calm Calm - N/A   Clear
6:35 AM 46.6 °F - 43.0 °F 87% 30.18 in 10.0 mi Calm Calm - N/A   Clear
6:55 AM 47.3 °F - 43.5 °F 87% 30.19 in 10.0 mi Calm Calm - N/A   Clear
7:15 AM 48.4 °F - 44.2 °F 86% 30.20 in 10.0 mi Calm Calm - N/A   Clear
7:35 AM 46.4 °F - 42.4 °F 86% 30.20 in 10.0 mi Calm Calm - N/A   Clear
7:55 AM 52.2 °F - 47.1 °F 83% 30.22 in 10.0 mi Calm Calm - N/A   Clear
8:15 AM 54.5 °F - 46.9 °F 76% 30.23 in 10.0 mi Calm Calm - N/A   Clear
8:35 AM 54.9 °F - 46.9 °F 75% 30.24 in 10.0 mi Calm Calm - N/A   Clear
8:55 AM 56.8 °F - 47.5 °F 71% 30.24 in 10.0 mi South 3.5 mph - N/A   Clear
9:15 AM 58.6 °F - 47.3 °F 66% 30.23 in 10.0 mi SE 6.9 mph - N/A   Clear
9:35 AM 61.9 °F - 48.4 °F 61% 30.23 in 10.0 mi SE 5.8 mph - N/A   Clear
9:55 AM 62.8 °F - 47.8 °F 58% 30.23 in 10.0 mi SSE 5.8 mph - N/A   Clear
10:15 AM 64.8 °F - 47.8 °F 54% 30.23 in 10.0 mi South 4.6 mph - N/A   Clear
10:35 AM 65.8 °F - 47.5 °F 52% 30.22 in 10.0 mi SSW 6.9 mph - N/A   Clear
10:55 AM 67.6 °F - 47.3 °F 48% 30.22 in 10.0 mi South 4.6 mph - N/A   Clear
11:15 AM 70.7 °F - 47.3 °F 43% 30.20 in 10.0 mi South 5.8 mph - N/A   Clear
11:35 AM 70.5 °F - 47.5 °F 44% 30.19 in 10.0 mi SSE 8.1 mph - N/A   Clear
11:55 AM 72.0 °F - 46.2 °F 40% 30.18 in 10.0 mi South 8.1 mph - N/A   Clear
12:15 PM 72.3 °F - 45.7 °F 39% 30.17 in 10.0 mi South 5.8 mph - N/A   Clear
12:35 PM 73.0 °F - 45.3 °F 37% 30.16 in 10.0 mi South 9.2 mph - N/A   Clear
12:55 PM 73.4 °F - 45.7 °F 37% 30.15 in 10.0 mi SW 4.6 mph - N/A   Clear
1:15 PM 73.0 °F - 45.3 °F 37% 30.14 in 10.0 mi SSW 6.9 mph - N/A   Clear
1:35 PM 74.5 °F - 45.5 °F 36% 30.13 in 10.0 mi SSE 6.9 mph - N/A   Clear
1:55 PM 75.2 °F - 45.9 °F 35% 30.13 in 10.0 mi SSW 9.2 mph - N/A   Clear
2:15 PM 75.0 °F - 46.6 °F 36% 30.12 in 10.0 mi SSW 5.8 mph - N/A   Clear
2:35 PM 74.7 °F - 46.6 °F 37% 30.12 in 10.0 mi South 6.9 mph - N/A   Clear
2:55 PM 74.5 °F - 46.6 °F 37% 30.12 in 10.0 mi South 6.9 mph - N/A   Clear
3:15 PM 74.5 °F - 47.1 °F 38% 30.11 in 10.0 mi SSE 8.1 mph - N/A   Clear
3:35 PM 72.7 °F - 48.0 °F 42% 30.11 in 10.0 mi South 3.5 mph - N/A   Clear
3:55 PM 72.1 °F - 47.8 °F 42% 30.11 in 10.0 mi SSE 3.5 mph - N/A   Clear
4:15 PM 71.2 °F - 47.3 °F 42% 30.11 in 10.0 mi SSE 3.5 mph - N/A   Clear
4:35 PM 71.6 °F - 47.5 °F 42% 30.11 in 10.0 mi SSE 4.6 mph - N/A   Clear
4:55 PM 69.6 °F - 48.2 °F 46% 30.11 in 10.0 mi SSE 3.5 mph - N/A   Clear
5:15 PM 68.0 °F - 48.2 °F 49% 30.12 in 10.0 mi Calm Calm - N/A   Clear
5:35 PM 66.0 °F - 49.1 °F 54% 30.12 in 10.0 mi Calm Calm - N/A   Clear
5:55 PM 63.7 °F - 50.5 °F 62% 30.12 in 10.0 mi Calm Calm - N/A   Clear
6:15 PM 63.1 °F - 50.0 °F 62% 30.12 in 10.0 mi Calm Calm - N/A   Clear
6:35 PM 61.0 °F - 50.0 °F 67% 30.13 in 10.0 mi Calm Calm - N/A   Clear
6:55 PM 59.4 °F - 50.0 °F 71% 30.13 in 10.0 mi Calm Calm - N/A   Clear
7:15 PM 58.1 °F - 50.4 °F 75% 30.12 in 10.0 mi ESE 3.5 mph - N/A   Clear
7:35 PM 57.4 °F - 50.4 °F 77% 30.12 in 10.0 mi ESE 3.5 mph - N/A   Clear
7:55 PM 56.7 °F - 50.2 °F 79% 30.13 in 10.0 mi Calm Calm - N/A   Clear
8:15 PM 56.7 °F - 50.0 °F 78% 30.14 in 10.0 mi Calm Calm - N/A   Clear
8:35 PM 54.5 °F - 49.5 °F 83% 30.14 in 10.0 mi SE 3.5 mph - N/A   Clear
8:55 PM 57.0 °F - 49.6 °F 76% 30.15 in 10.0 mi Calm Calm - N/A   Clear
9:15 PM 55.6 °F - 49.6 °F 80% 30.16 in 10.0 mi Calm Calm - N/A   Clear
9:35 PM 55.2 °F - 49.8 °F 82% 30.16 in 10.0 mi Calm Calm - N/A   Clear
9:55 PM 55.4 °F - 50.0 °F 82% 30.16 in 10.0 mi Calm Calm - N/A   Clear
10:15 PM 53.2 °F - 48.9 °F 85% 30.16 in 10.0 mi ESE 3.5 mph - N/A   Clear
10:35 PM 54.3 °F - 49.1 °F 83% 30.16 in 10.0 mi SE 3.5 mph - N/A   Clear
10:55 PM 56.3 °F - 49.3 °F 77% 30.16 in 10.0 mi SE 3.5 mph - N/A   Clear
11:15 PM 58.3 °F - 48.2 °F 69% 30.16 in 10.0 mi SSE 3.5 mph - N/A   Clear
11:35 PM 58.3 °F - 48.2 °F 69% 30.16 in 10.0 mi SSE 3.5 mph - N/A   Clear
11:55 PM 59.0 °F - 48.2 °F 67% 30.16 in 10.0 mi South 3.5 mph - N/A   Clear